Location: Baia Mare
(47.6567°N, 23.5850°E)
Time: 08:13:29
(UTC+03:00)

ISS - Pass Details

Date: 28 March 2018
Orbit: 402 x 408 km, 51.6° (Epoch: 20 July)

Event Time Altitude Azimuth Distance (km) Brightness Sun altitude
Rises 23:02:12 0° 282° (WNW) 2,358 0.8 -29.7°
Reaches altitude 10° 23:04:23 10° 291° (WNW) 1,496 -0.2 -29.9°
Enters shadow 23:04:51 13° 294° (WNW) 1,316 -0.5 -30.0°
